Corpus Christi, TX

6:42 AM CST on February 20, 2017 (GMT -0600)
North Padre Island

Weather History for KOPM - March, 2014

Change the Weather History Date:

Thursday, March 13, 2014

  Actual Average (KHRL) Record (KHRL)
Temperature  
Mean Temperature 63 °F -  
Max Temperature 66 °F 77 °F 102 °F (1954)
Min Temperature 60 °F 57 °F 20 °F (2007)
Degree Days  
Heating Degree Days 2    
Growing Degree Days 13 (Base 50)    
Moisture  
Dew Point 47 °F    
Average Humidity 55    
Maximum Humidity 73    
Minimum Humidity 42    
Precipitation  
Precipitation 0.00 in - - ()
Sea Level Pressure  
Sea Level Pressure 30.22 in    
Wind  
Wind Speed 14 mph (NE)    
Max Wind Speed 18 mph    
Max Gust Speed 22 mph    
Visibility 10 miles    
Events      
Averages and records for this station are not official NWS values.
T = Trace of Precipitation, MM = Missing Value Source: NWS Daily Summary

Daily Weather History Graph

Daily Weather History Graph

Search for Another Location

Airport or City:

Trip Planner

Search our weather history database for the weather conditions in past years. The results will help you decide how hot, cold, wet, or windy it might be!

Date:

Astronomy

Mar. 13, 2014 Rise Set
Actual Time 7:39 AM CDT 7:35 PM CDT
Civil Twilight 7:16 AM CDT 7:58 PM CDT
Nautical Twilight 6:49 AM CDT 8:25 PM CDT
Astronomical Twilight 6:22 AM CDT 8:52 PM CDT
Moon 5:13 PM CDT (3/13) 5:34 AM CDT (3/13)
Length of Visible Light 12h 42m
Length of Day
11h 56m
Waxing Gibbous, 91% of the Moon is Illuminated
Mar 13
Waxing Gibbous
Mar 16
Full
Mar 23
Last Quarter
Mar 30
New
Apr 7
First Quarter

Hourly Weather History & Observations

Time (CDT) Temp. Dew Point Humidity Pressure Visibility Wind Dir Wind Speed Gust Speed Precip Events Conditions
12:15 AM 62.6 °F 41.0 °F 45% 30.22 in 10.0 mi North 15.0 mph - N/A   Clear
12:35 AM 62.6 °F 39.2 °F 42% 30.22 in 10.0 mi North 16.1 mph - N/A   Clear
12:55 AM 62.6 °F 39.2 °F 42% 30.23 in 10.0 mi North 13.8 mph 20.7 mph N/A   Clear
1:15 AM 62.6 °F 41.0 °F 45% 30.23 in 10.0 mi North 12.7 mph 19.6 mph N/A   Clear
1:35 AM 62.6 °F 39.2 °F 42% 30.23 in 10.0 mi North 13.8 mph - N/A   Clear
1:55 AM 60.8 °F 39.2 °F 45% 30.23 in 10.0 mi North 12.7 mph 19.6 mph N/A   Clear
2:15 AM 60.8 °F 39.2 °F 45% 30.24 in 10.0 mi North 12.7 mph 19.6 mph N/A   Clear
2:35 AM 60.8 °F 39.2 °F 45% 30.24 in 10.0 mi North 12.7 mph - N/A   Clear
2:55 AM 60.8 °F 41.0 °F 48% 30.23 in 10.0 mi North 15.0 mph - N/A   Clear
3:15 AM 60.8 °F 41.0 °F 48% 30.23 in 10.0 mi North 15.0 mph - N/A   Clear
3:35 AM 60.8 °F 42.8 °F 52% 30.23 in 10.0 mi North 12.7 mph 20.7 mph N/A   Clear
3:55 AM 60.8 °F 41.0 °F 48% 30.22 in 10.0 mi North 15.0 mph 20.7 mph N/A   Clear
4:15 AM 60.8 °F 41.0 °F 48% 30.22 in 10.0 mi North 13.8 mph 19.6 mph N/A   Partly Cloudy
4:35 AM 60.8 °F 41.0 °F 48% 30.22 in 10.0 mi North 11.5 mph 17.3 mph N/A   Clear
4:55 AM 60.8 °F 41.0 °F 48% 30.22 in 10.0 mi North 11.5 mph 18.4 mph N/A   Clear
5:15 AM 60.8 °F 42.8 °F 52% 30.22 in 10.0 mi North 13.8 mph - N/A   Clear
5:35 AM 60.8 °F 42.8 °F 52% 30.22 in 10.0 mi North 11.5 mph - N/A   Clear
5:55 AM 60.8 °F 42.8 °F 52% 30.23 in 10.0 mi North 11.5 mph 18.4 mph N/A   Clear
6:15 AM 62.6 °F 41.0 °F 45% 30.24 in 10.0 mi NNE 12.7 mph 21.9 mph N/A   Clear
6:35 AM 60.8 °F 41.0 °F 48% 30.25 in 10.0 mi NNE 13.8 mph - N/A   Clear
6:55 AM 60.8 °F 41.0 °F 48% 30.26 in 10.0 mi NNE 15.0 mph 21.9 mph N/A   Clear
7:15 AM 60.8 °F 42.8 °F 52% 30.26 in 10.0 mi NNE 11.5 mph 21.9 mph N/A   Clear
7:35 AM 60.8 °F 41.0 °F 48% 30.27 in 10.0 mi NNE 13.8 mph 21.9 mph N/A   Clear
7:55 AM 60.8 °F 42.8 °F 52% 30.27 in 10.0 mi NNE 12.7 mph 21.9 mph N/A   Clear
8:15 AM 62.6 °F 44.6 °F 52% 30.28 in 10.0 mi NNE 12.7 mph 19.6 mph N/A   Clear
8:35 AM 62.6 °F 44.6 °F 52% 30.29 in 10.0 mi NE 15.0 mph - N/A   Clear
8:55 AM 62.6 °F 44.6 °F 52% 30.29 in 10.0 mi NE 18.4 mph - N/A   Clear
9:15 AM 62.6 °F 44.6 °F 52% 30.30 in 10.0 mi NE 18.4 mph - N/A   Clear
9:35 AM 62.6 °F 44.6 °F 52% 30.31 in 10.0 mi NE 16.1 mph - N/A   Clear
9:55 AM 62.6 °F 42.8 °F 48% 30.31 in 10.0 mi NE 17.3 mph - N/A   Clear
10:15 AM 62.6 °F 44.6 °F 52% 30.31 in 10.0 mi NE 13.8 mph 19.6 mph N/A   Clear
10:35 AM 62.6 °F 44.6 °F 52% 30.31 in 10.0 mi NE 16.1 mph - N/A   Clear
10:55 AM 62.6 °F 44.6 °F 52% 30.30 in 10.0 mi NE 15.0 mph - N/A   Clear
11:15 AM 62.6 °F 44.6 °F 52% 30.30 in 10.0 mi ENE 15.0 mph - N/A   Clear
11:35 AM 62.6 °F 44.6 °F 52% 30.30 in 10.0 mi NE 13.8 mph - N/A   Clear
11:55 AM 62.6 °F 44.6 °F 52% 30.30 in 9.0 mi NE 13.8 mph - N/A   Clear
12:15 PM 64.4 °F 44.6 °F 49% 30.30 in 10.0 mi ENE 12.7 mph - N/A   Clear
12:35 PM 64.4 °F 46.4 °F 52% 30.29 in 10.0 mi ENE 11.5 mph - N/A   Clear
12:55 PM 64.4 °F 46.4 °F 52% 30.28 in 10.0 mi ENE 11.5 mph - N/A   Clear
1:15 PM 64.4 °F 48.2 °F 56% 30.28 in 10.0 mi ENE 9.2 mph - N/A   Clear
1:35 PM 64.4 °F 48.2 °F 56% 30.27 in 10.0 mi ENE 9.2 mph - N/A   Clear
1:55 PM 64.4 °F 46.4 °F 52% 30.26 in 10.0 mi NE 9.2 mph - N/A   Clear
2:15 PM 64.4 °F 48.2 °F 56% 30.24 in 10.0 mi ENE 9.2 mph - N/A   Clear
2:35 PM 64.4 °F 48.2 °F 56% 30.23 in 10.0 mi East 10.4 mph - N/A   Clear
2:55 PM 64.4 °F 48.2 °F 56% 30.23 in 10.0 mi ENE 10.4 mph - N/A   Clear
3:15 PM 64.4 °F 48.2 °F 56% 30.21 in 10.0 mi East 10.4 mph - N/A   Clear
3:35 PM 64.4 °F 48.2 °F 56% 30.20 in 10.0 mi ENE 10.4 mph - N/A   Clear
3:55 PM 64.4 °F 48.2 °F 56% 30.20 in 10.0 mi ENE 10.4 mph - N/A   Clear
4:15 PM 64.4 °F 48.2 °F 56% 30.19 in 10.0 mi East 9.2 mph - N/A   Clear
4:35 PM 64.4 °F 48.2 °F 56% 30.18 in 10.0 mi East 10.4 mph - N/A   Clear
4:55 PM 64.4 °F 48.2 °F 56% 30.17 in 10.0 mi ENE 10.4 mph - N/A   Clear
5:15 PM 64.4 °F 50.0 °F 59% 30.17 in 10.0 mi ENE 11.5 mph - N/A   Clear
5:35 PM 64.4 °F 50.0 °F 59% 30.17 in 10.0 mi ENE 10.4 mph - N/A   Clear
5:55 PM 64.4 °F 50.0 °F 59% 30.16 in 10.0 mi ENE 11.5 mph - N/A   Clear
6:15 PM 64.4 °F 51.8 °F 64% 30.16 in 10.0 mi ENE 11.5 mph - N/A   Clear
6:35 PM 64.4 °F 50.0 °F 59% 30.16 in 10.0 mi East 10.4 mph - N/A   Clear
6:55 PM 64.4 °F 51.8 °F 64% 30.16 in 10.0 mi East 10.4 mph - N/A   Clear
7:15 PM 64.4 °F 51.8 °F 64% 30.16 in 10.0 mi East 13.8 mph - N/A   Partly Cloudy
7:35 PM 64.4 °F 53.6 °F 68% 30.15 in 10.0 mi East 13.8 mph - N/A   Clear
7:55 PM 66.2 °F 53.6 °F 64% 30.15 in 10.0 mi East 13.8 mph - N/A   Clear
8:15 PM 66.2 °F 53.6 °F 64% 30.15 in 10.0 mi East 15.0 mph - N/A   Scattered Clouds
8:35 PM 66.2 °F 55.4 °F 68% 30.15 in 10.0 mi East 16.1 mph - N/A   Overcast
8:45 PM 66.2 °F 55.4 °F 68% 30.15 in 10.0 mi East 15.0 mph - N/A   Overcast
9:15 PM 66.2 °F 55.4 °F 68% 30.15 in 10.0 mi East 16.1 mph - N/A   Mostly Cloudy
9:35 PM 66.2 °F 53.6 °F 64% 30.15 in 10.0 mi East 16.1 mph - N/A   Mostly Cloudy
9:55 PM 66.2 °F 55.4 °F 68% 30.15 in 10.0 mi East 17.3 mph - N/A   Mostly Cloudy
10:15 PM 66.2 °F 55.4 °F 68% 30.15 in 10.0 mi East 17.3 mph - N/A   Mostly Cloudy
10:35 PM 66.2 °F 55.4 °F 68% 30.15 in 10.0 mi East 18.4 mph - N/A   Overcast
10:55 PM 66.2 °F 55.4 °F 68% 30.14 in 10.0 mi East 18.4 mph - N/A   Overcast
11:15 PM 66.2 °F 55.4 °F 68% 30.14 in 10.0 mi East 18.4 mph - N/A   Overcast
11:35 PM 66.2 °F 57.2 °F 73% 30.14 in 10.0 mi East 17.3 mph - N/A   Overcast
11:55 PM 66.2 °F 57.2 °F 73% 30.13 in 10.0 mi East 18.4 mph - N/A   Overcast